Mt. Pocono, PA

5:06 AM EST on December 16, 2017 (GMT -0500)
Pocono Mountains Municipal

Weather History for KMPO - August, 2014

Change the Weather History Date:

Monday, August 4, 2014

  Actual Average Record
Temperature  
Mean Temperature 68 °F 68 °F  
Max Temperature 78 °F 78 °F 91 °F (1944)
Min Temperature 57 °F 58 °F 40 °F (1966)
Degree Days  
Heating Degree Days 0 1  
Month to date heating degree days 0 4  
Since 1 June heating degree days 79 126  
Since 1 July heating degree days 24 26  
Cooling Degree Days 3 4  
Month to date cooling degree days 12 16  
Year to date cooling degree days 187 218  
Since 1 June cooling degree days 180 199  
Growing Degree Days 18 (Base 50)    
Moisture  
Dew Point 59 °F    
Average Humidity 72    
Maximum Humidity 93    
Minimum Humidity 50    
Precipitation  
Precipitation 0.00 in 0.17 in 1.65 in (1969)
Month to date precipitation T 0.69  
Year to date precipitation 25.90 27.21  
Sea Level Pressure  
Sea Level Pressure 30.10 in    
Wind  
Wind Speed 5 mph (WNW)    
Max Wind Speed 13 mph    
Max Gust Speed 18 mph    
Visibility 8 miles    
Events Rain    
T = Trace of Precipitation, MM = Missing Value Source: NWS Daily Summary

Daily Weather History Graph

Daily Weather History Graph

Search for Another Location

Airport or City:

Trip Planner

Search our weather history database for the weather conditions in past years. The results will help you decide how hot, cold, wet, or windy it might be!

Date:

Astronomy

Aug. 04, 2014 Rise Set
Actual Time 6:00 AM EDT 8:14 PM EDT
Civil Twilight 5:29 AM EDT 8:45 PM EDT
Nautical Twilight 4:51 AM EDT 9:22 PM EDT
Astronomical Twilight 4:09 AM EDT 10:04 PM EDT
Moon 2:23 PM EDT (8/4) 12:05 AM EDT (8/4)
Length of Visible Light 15h 15m
Length of Day
14h 14m
First Quarter, 57% of the Moon is Illuminated
Aug 4
First Quarter
Aug 10
Full
Aug 17
Last Quarter
Aug 25
New
Sep 2
First Quarter

Hourly Weather History & Observations

Time (EDT) Temp. Dew Point Humidity Pressure Visibility Wind Dir Wind Speed Gust Speed Precip Events Conditions
12:19 AM 62.1 °F 60.1 °F 93% 30.10 in 4.0 mi WSW 3.5 mph - N/A   Scattered Clouds
12:24 AM 63.0 °F 60.1 °F 90% 30.10 in 4.0 mi SW 3.5 mph - N/A   Mostly Cloudy
12:37 AM 63.0 °F 61.0 °F 93% 30.11 in 2.0 mi WSW 4.6 mph - N/A   Mostly Cloudy
12:53 AM 64.0 °F 62.1 °F 93% 30.09 in 3.0 mi WSW 4.6 mph - N/A   Overcast
2:35 AM 64.0 °F 62.1 °F 93% 30.10 in 5.0 mi WSW 4.6 mph - N/A   Overcast
2:53 AM 64.0 °F 62.1 °F 93% 30.07 in 6.0 mi WSW 5.8 mph - N/A   Overcast
3:53 AM 64.0 °F 61.0 °F 90% 30.08 in 7.0 mi West 6.9 mph - N/A   Overcast
4:07 AM 64.0 °F 61.0 °F 90% 30.10 in 7.0 mi West 8.1 mph - N/A   Overcast
4:25 AM 63.0 °F 61.0 °F 93% 30.09 in 6.0 mi WNW 5.8 mph - N/A   Scattered Clouds
4:30 AM 63.0 °F 61.0 °F 93% 30.09 in 6.0 mi WNW 5.8 mph - N/A   Mostly Cloudy
4:44 AM 63.0 °F 61.0 °F 93% 30.09 in 5.0 mi WNW 5.8 mph - N/A   Mostly Cloudy
5:41 AM 62.1 °F 60.1 °F 93% 30.10 in 4.0 mi WNW 4.6 mph - N/A   Mostly Cloudy
6:32 AM 62.1 °F 60.1 °F 93% 30.10 in 5.0 mi West 8.1 mph - N/A   Overcast
6:53 AM 63.0 °F 60.1 °F 90% 30.08 in 8.0 mi WNW 6.9 mph - N/A   Overcast
7:37 AM 63.0 °F 60.1 °F 90% 30.11 in 9.0 mi WNW 8.1 mph - N/A   Overcast
8:42 AM 64.0 °F 60.1 °F 87% 30.12 in 10.0 mi WNW 9.2 mph - N/A   Overcast
8:53 AM 64.9 °F 59.0 °F 81% 30.10 in 10.0 mi NW 8.1 mph - N/A   Mostly Cloudy
9:53 AM 64.0 °F 59.0 °F 84% 30.12 in 10.0 mi WNW 9.2 mph - N/A   Overcast
10:04 AM 64.9 °F 59.0 °F 81% 30.14 in 10.0 mi NNW 8.1 mph - N/A   Overcast
10:53 AM 70.0 °F 57.9 °F 65% 30.12 in 10.0 mi North 8.1 mph - N/A   Mostly Cloudy
11:53 AM 71.1 °F 57.9 °F 63% 30.12 in 10.0 mi Variable 6.9 mph - N/A   Mostly Cloudy
12:03 PM 70.0 °F 57.9 °F 65% 30.14 in 10.0 mi Variable 6.9 mph - N/A   Mostly Cloudy
12:53 PM 73.9 °F 57.9 °F 57% 30.11 in 10.0 mi NNW 8.1 mph - N/A   Scattered Clouds
1:13 PM 73.0 °F 57.9 °F 59% 30.14 in 10.0 mi NW 9.2 mph - N/A   Mostly Cloudy
1:53 PM 73.9 °F 57.9 °F 57% 30.11 in 10.0 mi Variable 4.6 mph - N/A   Mostly Cloudy
2:53 PM 73.9 °F 57.0 °F 55% 30.10 in 10.0 mi North 8.1 mph - N/A   Mostly Cloudy
3:53 PM 75.9 °F 57.0 °F 52% 30.09 in 10.0 mi Variable 6.9 mph - 0.00 in   Partly Cloudy
4:53 PM 73.9 °F 57.0 °F 55% 30.08 in 10.0 mi North 3.5 mph - N/A   Mostly Cloudy
5:25 PM 75.9 °F 57.0 °F 52% 30.10 in 10.0 mi Calm Calm - 0.00 in Rain Light Rain
5:53 PM 75.0 °F 55.9 °F 51% 30.07 in 10.0 mi Calm Calm - 0.00 in   Partly Cloudy
6:53 PM 75.9 °F 57.9 °F 54% 30.08 in 10.0 mi North 3.5 mph - N/A   Partly Cloudy
7:41 PM 73.0 °F 59.0 °F 61% 30.11 in 10.0 mi NW 3.5 mph - N/A   Scattered Clouds
7:53 PM 72.0 °F 60.1 °F 66% 30.09 in 10.0 mi WNW 4.6 mph - N/A   Partly Cloudy
8:53 PM 64.9 °F 60.1 °F 84% 30.11 in 10.0 mi Calm Calm - N/A   Clear
9:53 PM 62.1 °F 57.9 °F 86% 30.11 in 10.0 mi Calm Calm - N/A   Clear
10:53 PM 61.0 °F 57.9 °F 90% 30.11 in 10.0 mi Calm Calm - N/A   Clear
11:53 PM 59.0 °F 55.9 °F 90% 30.12 in 10.0 mi Calm Calm - N/A   Clear